Regional Weather Roundup
Issued by NWS Green Bay, WI

Home | Current Version | Previous Version | Graphics & Text | Print | Product List | Glossary Off
Versions: 1 2 3 4 5 6 7 8 9 10 11 12 13 14 15 16 17 18 19 20 21 22 23 24 25 26 27 28 29 30 31 32 33 34 35 36 37 38 39 40 41 42 43 44 45 46 47 48 49 50

000
ASUS43 KGRB 301500
RWRGRB

NORTH-CENTRAL AND NORTHEAST WISCONSIN REGIONAL WEATHER ROUNDUP
NATIONAL WEATHER SERVICE GREEN BAY WI
1000 AM CDT MON MAY 30 2016

WIZ005-009-010>012-018-019-301600-
NORTH CENTRAL WISCONSIN

CITY           SKY/WX    TMP DP  RH WIND       PRES   REMARKS
IRONWOOD       SUNNY     70  55  60 W16       29.95S
MANITOWISH WTR NOT AVBL
ARBOR VITAE    NOT AVBL
EAGLE RIVER    NOT AVBL
LAND O LAKES   NOT AVBL
RHINELANDER    SUNNY     70  51  51 W17       30.03R
PHILLIPS       NOT AVBL
ANTIGO         NOT AVBL
TOMAHAWK       NOT AVBL
MERRILL        SUNNY     70  55  60 W3        30.03S
$$

WIZ013-073-301600-
NORTHEAST WISCONSIN

CITY           SKY/WX    TMP DP  RH WIND       PRES   REMARKS
IRON MOUNTAIN  SUNNY     70  49  47 NW17      29.97R
MARINETTE      SUNNY     72  51  47 NW10G16   29.99S
$$

WIZ017-030-035>037-045-301600-
CENTRAL WISCONSIN

CITY           SKY/WX    TMP DP  RH WIND       PRES   REMARKS
MEDFORD        NOT AVBL
WAUSAU         SUNNY     73  52  47 NW7       30.01S
MOSINEE        SUNNY     70  52  52 NW8       30.04S
MARSHFIELD     SUNNY     73  50  44 NW8       30.03R
WISC RAPIDS    SUNNY     75  49  39 N7        30.04S
STEVENS POINT  NOT AVBL
WAUPACA        NOT AVBL
SHAWANO        NOT AVBL
CLINTONVILLE   NOT AVBL
WAUTOMA        PTSUNNY  N/A N/A N/A VRB6      30.03S
$$

WIZ038-039-048-051-301600-
FOX VALLEY

CITY           SKY/WX    TMP DP  RH WIND       PRES   REMARKS
NWS GREEN BAY  SUNNY     74  57  55 NW6       30.01R
APPLETON       MOSUNNY   72  54  53 VRB3      30.01
OSHKOSH        SUNNY     73  58  59 N6        30.02S
FOND DU LAC    SUNNY     74  62  66 N5        30.02S
$$

WIZ022-050-052-301600-
EAST CENTRAL WISCONSIN

CITY           SKY/WX    TMP DP  RH WIND       PRES   REMARKS
EPHRAIM        NOT AVBL
STURGEON BAY   NOT AVBL
MANITOWOC      NOT AVBL
SHEBOYGAN      PTSUNNY   73  59  61 W5        30.01S
$$

LMZ563-521-522-541>543-301600-
LAKESHORE

STATION/POSITION TIME  TEMP    WIND        PRES    VSBY  WAVE
                       AIR SEA DIR/SP/G                  HT/PER
                 (UTC) (F)     (DEG/KT/KT) (MB)    (MI)  (FT/S)
SHEBOYGAN LKSHOR 1400   68      20/  3/  4 1016.3R
KEWAUNEE LKSHORE 1400   71     280/  4/  9 1015.3R
NORTHPORT PIER   1400   68     250/  6/ 12 1014.6F
N MID LAKE BUOY  1350   52 48  240/  8/  8 1014.7R         1
CHAMBERS ISLAND  1400   67     220/  3/  6 1015.2S
MENOMINEE LKSHOR 1400   69     270/  8/ 12 1014.1F
$$




USA.gov is the U.S. government's official web portal to all federal, state and local government web resources and services.